sat.trackr.live / text

‹ back to catalog

STARLINK-2469

NORAD 48128 · 2021-027AN

PAYLOAD ACTIVE UNKNOWN

§ Identity

Operator
Country
US
Launch date
2021-04-07
Launch site
AFETR
Launch vehicle
Mass (kg)
RCS (m²)

Purposes: comms

External: N2YO · Heavens-Above · Gunter

§ Orbital elements

Epoch: 2026-09-19T18:35:17.355552Z

Period
93.13 min
Inclination
53.0978°
Eccentricity
0.0005445
Mean motion
15.46285443 rev/d
Perigee alt
423.9 km
Apogee alt
431.3 km
Semi-major
6,805.7 km
B*
1.9047e-3
RAAN
280.4832°
Arg perigee
53.6844°
Mean anomaly
306.4665°
Rev number
30,308

§ Raw data

STARLINK-24691 48128U 21027AN  26262.77450643  .00096149  00000+0  19047-2 0  99902 48128  53.0978 280.4832 0005445  53.6844 306.4665 15.46285443303088

JSON: /api/v1/satellites/48128 · /tle

For live sub-satellite position, see the globe view (requires WebGL).

§ Visibility from observer

Set your observer location to see the next 7 days of passes ≥ 10°. The values pass through the URL so the page stays shareable.

No JS? Fill the form by hand. The geolocation button needs JavaScript.